User: anonymous   Login
Location: B?jaj?g
(11.7167°N, 92.6667°E)
Time: 21:54:45
(UTC+00:00)
Language:

GP-B - Orbit

View from above orbital plane
View from above orbital plane
View from above satellite
View from above satellite

Ground track
Ground track

The orbit data is extracted from the following two-line orbital elements,

1 28230U 04014A   20328.11131077  .00000200  00000-0  25002-4 0  9995
2 28230  89.8153  95.0054 0002741  75.8418 284.3109 14.78763891894531
Epoch (UTC): 23 November 2020 02:40:17
Eccentricity: 0.0002741
inclination: 89.8153°
perigee height: 631 km
apogee height: 635 km
right ascension of ascending node: 95.0054°
argument of perigee: 75.8418°
revolutions per day: 14.78763891
mean anomaly at epoch: 284.3109°
orbit number at epoch: 89453

The dashed part of the orbit path shows where the satellite is in the earth's shadow,  

DLR